Skip Page Navigation
NASA JPL Caltech
NASA Logo - Jet Propulsion Laboratory + View the NASA Portal
+ Near-Earth Object (NEO) Program
Search JPL
JPL Home Earth Solar System Stars & Galaxies Technology
JPL Solar System Dynamics
BODIES ORBITS EPHEMERIDES TOOLS PHYSICAL DATA DISCOVERY FAQ SITE MAP
JPL Small-Body Database Browser
Search: [ help ]  
(2009 SC15)
Classification: Amor [NEO]          SPK-ID: 3467314
Ephemeris | Orbit Diagram | Orbital Elements | Physical Parameters | Close-Approach Data ]

[ hide orbit diagram ]
Orbit Diagram
Note: Make sure you have Java enabled on your browser to see the applet. This applet is provided as a 3D orbit visualization tool. The applet was implemented using 2-body methods, and hence should not be used for determining accurate long-term trajectories (over several years or decades) or planetary encounter circumstances. For accurate long-term ephemerides, please instead use our Horizons system.
Orbit Viewer

Additional Notes: the orbits shown in the applet are color coded. The planets are white lines, and the asteroid/comet is a blue line. The bright white line indicates the portion of the orbit that is above the ecliptic plane, and the darker portion is below the ecliptic plane. Likewise for the asteroid/comet orbit, the light blue indicates the portion above the ecliptic plane, and the dark blue the portion below the ecliptic plane.

Orbit Viewer applet originally written and kindly provided by Osamu Ajiki (AstroArts), and further modified by Ron Baalke (JPL).


Orbital Elements at Epoch 2456400.5 (2013-Apr-18.0) TDB
Reference: JPL 45 (heliocentric ecliptic J2000)
 Element Value Uncertainty (1-sigma)   Units 
e .1792565381315792 3.3961e-08  
a 1.265602188423965 6.26e-09 AU
q 1.038734721475335 4.135e-08 AU
i 6.844403251801062 4.4276e-06 deg
node 178.6789328272552 1.2944e-05 deg
peri 333.7739189385587 2.0883e-05 deg
M 36.26252567499674 1.3213e-05 deg
tp 2456348.115862090338
(2013-Feb-24.61586209)
1.9259e-05 JED
period 520.0489843563523
1.42
3.8584e-06
1.056e-08
d
yr
n .6922424825914434 5.136e-09 deg/d
Q 1.492469655372596 7.3821e-09 AU
  Orbit Determination Parameters
   # obs. used (total)      208  
   data-arc span      3831 days (10.49 yr)  
   first obs. used      2002-11-06  
   last obs. used      2013-05-03  
   planetary ephem.      DE405  
   SB-pert. ephem.      SB405-CPV-2  
   condition code      0  
   fit RMS      .633  
   data source      ORB  
   producer      Otto Matic  
   solution date      2013-May-22 01:46:50  

Additional Information
 Earth MOID = .0556256 AU 
 T_jup = 5.075 
[ show covariance matrix ]

Ephemeris | Orbit Diagram | Orbital Elements | Physical Parameters | Close-Approach Data ]

Physical Parameter Table
Parameter Symbol Value Units Sigma Reference Notes
absolute magnitude H 21.402 mag .43278 45 autocmod 2.5c

[ show close-approach data ]
Ephemeris | Orbit Diagram | Orbital Elements | Physical Parameters | Close-Approach Data ]
ABOUT SSD CREDITS/AWARDS PRIVACY/COPYRIGHT GLOSSARY LINKS
FirstGov 2013-May-22 12:08 UT
(server date/time)  
NASA Home Page
Site Manager:   Donald K. Yeomans
Webmaster  Alan B. Chamberlin